sat.trackr.live / text

‹ back to catalog

STARLINK-4297

NORAD 53543 · 2022-101S

PAYLOAD ACTIVE UNKNOWN

§ Identity

Operator
Country
US
Launch date
2022-08-19
Launch site
AFETR
Launch vehicle
Mass (kg)
RCS (m²)

Purposes: comms

External: N2YO · Heavens-Above · Gunter

§ Orbital elements

Epoch: 2026-09-19T23:43:22.810944Z

Period
93.85 min
Inclination
53.1595°
Eccentricity
0.0001296
Mean motion
15.34390753 rev/d
Perigee alt
461.8 km
Apogee alt
463.6 km
Semi-major
6,840.9 km
B*
1.2178e-5
RAAN
255.8133°
Arg perigee
86.2761°
Mean anomaly
273.8390°
Rev number
22,654

§ Raw data

STARLINK-42971 53543U 22101S   26262.98845846  .00000035  00000+0  12178-4 0  99962 53543  53.1595 255.8133 0001296  86.2761 273.8390 15.34390753226546

JSON: /api/v1/satellites/53543 · /tle

For live sub-satellite position, see the globe view (requires WebGL).

§ Visibility from observer

Set your observer location to see the next 7 days of passes ≥ 10°. The values pass through the URL so the page stays shareable.

No JS? Fill the form by hand. The geolocation button needs JavaScript.